User: anonymous   Login
Location: Unspecified
(0.0000°N, 0.0000°E)
Time: 22:48:09
(UTC+00:00)
Language:

Freja - Orbit

View from above orbital plane
View from above orbital plane
View from above satellite
View from above satellite

Ground track
Ground track

The orbit data is extracted from the following two-line orbital elements,

1 22161U 92064A   17113.66081694 -.00000029 +00000-0 +35008-4 0  9998
2 22161 062.9976 204.7428 0747591 313.4134 040.6918 13.30264734189180
Epoch (UTC): 23 April 2017 15:51:34
Eccentricity: 0.0747591
inclination: 62.9976°
perigee height: 583 km
apogee height: 1708 km
right ascension of ascending node: 204.7428°
argument of perigee: 313.4134°
revolutions per day: 13.30264734
mean anomaly at epoch: 40.6918°
orbit number at epoch: 18918

The dashed part of the orbit path shows where the satellite is in the earth's shadow,  

DLR